Garrett, PA (15542)

2:12 PM EST on January 30, 2015 (GMT -0500)
Rockwood | Change Station
CLOSE
Current Station
Personal Weather Station
Location: Rockwood, PA
Elevation: 2000 ft
Nearby Weather Stations
Active Advisory: Wind Chill Advisory

Elev 2000 ft 39.92 °N, 79.16 °W | Updated 1 minute ago

Overcast
Overcast
15.4 °F
Feels Like 15 °F
N
2.0
Wind Variable Wind from WSW
Gusts 18.0 mph

Today
High -- | Low -- °F
--% Chance of Precip.
Yesterday
High -- | Low -- °F
Precip. -- in
7:26 AM 5:33 PM
Waxing Gibbous, 84% visible
Pressure 30.21 in
Visibility 10.0 miles
Clouds Scattered Clouds 4200 ft
Scattered Clouds 5000 ft
Windchill 15 °F
Dew Point 8 °F
Humidity 73%
Rainfall 13.91 in
Snow Depth Not available.
UV 2 out of 12
Pollen .10 out of 12
Air Quality Not available.
Flu Activity Not available.
METAR KCBE 301850Z AUTO 30007G23KT 231V341 10SM SCT042 SCT050 M01/M11 A3021 RMK AO1

More Conditions Fewer Conditions

Pressure 30.21 in
Visibility 10.0 miles
Clouds Scattered Clouds 4200 ft
Scattered Clouds 5000 ft
Windchill 15 °F
Dew Point 8 °F
Humidity 73%
Rainfall 13.91 in
Snow Depth Not available.
UV 2 out of 12
Pollen .10 out of 12
Air Quality Not available.
Flu Activity Not available.
METAR KCBE 301850Z AUTO 30007G23KT 231V341 10SM SCT042 SCT050 M01/M11 A3021 RMK AO1

More Conditions Fewer Conditions

10-Day Weather Forecast

Almanac

Astronomy

Jan. 30, 2015 Rise Set
Actual Time
Civil Twilight
Nautical Twilight
Astronomical Twilight
Moon
Length of Visible Light
Length of Day
Tomorrow will be .
, % of the Moon is Illuminated

Today's Extremes

State Highs State Lows

Community

WunderPhotos

Upload Photos

1,791,868 photos uploaded!

WunderBlogs® & News

Nearby

Air Quality

  Air Quality AQ Index Pollutant
Not available.

Snow Depth

Station Depth Elevation

Earthquake Activity

City Distance Mag. Time & Date
Minimum magnitude displayed is 2.5.

Coastal Water Temperatures

Place Temperature

Nearby Weather Stations